Total_Precipitation_Accumulation
0.03 0.07 0.11 0.11 0.08 0.08 0.07 0.06 0.06 0.08 0.13 0.23 0.34 0.38 0.37 0.39 0.43 0.44 0.39 0.39 0.50 0.61 0.66 0.63 0.59 0.58 0.60 0.71 0.84 1.04 1.27 1.32 1.35 1.45 1.57 1.71 1.87 1.91 1.92 1.93 1.91 2.02 1.99 1.90
0.05 0.07 0.09 0.07 0.07 0.07 0.06 0.06 0.06 0.09 0.14 0.24 0.35 0.38 0.34 0.33 0.34 0.39 0.43 0.44 0.51 0.67 0.77 0.83 0.87 0.86 0.90 1.00 1.19 1.46 1.73 1.82 1.89 1.95 2.04 2.11 2.16 2.15 2.21 2.22 2.18 2.10 2.01 2.02
0.10 0.10 0.11 0.09 0.08 0.08 0.08 0.09 0.10 0.14 0.21 0.31 0.42 0.40 0.45 0.43 0.41 0.52 0.57 0.61 0.65 0.79 0.89 1.00 1.04 1.07 1.17 1.26 1.45 1.65 1.79 1.85 1.94 2.03 2.11 2.17 2.21 2.23 2.20 2.20 2.13 2.04 2.07 2.11
0.18 0.20 0.21 0.13 0.15 0.17 0.19 0.21 0.24 0.24 0.30 0.37 0.45 0.46 0.50 0.52 0.50 0.53 0.63 0.76 0.78 0.86 0.95 1.00 1.11 1.23 1.33 1.36 1.40 1.62 1.77 1.84 1.83 1.84 1.91 2.03 2.15 2.13 2.03 2.00 1.99 1.96 1.96 1.88
0.31 0.28 0.28 0.28 0.26 0.27 0.34 0.41 0.38 0.50 0.56 0.51 0.51 0.53 0.55 0.59 0.74 0.72 0.68 0.73 0.78 0.89 0.95 1.01 1.06 1.13 1.11 1.15 1.26 1.39 1.47 1.56 1.60 1.70 1.82 1.91 1.99 2.03 2.03 1.97 1.80 1.67 1.59 1.57
0.44 0.45 0.42 0.42 0.45 0.36 0.39 0.69 0.68 0.74 0.80 0.73 0.72 0.82 0.75 0.58 0.59 0.64 0.67 0.68 0.75 0.88 0.93 0.98 1.02 1.03 1.06 1.14 1.29 1.46 1.59 1.68 1.76 1.86 1.96 1.96 2.03 2.10 2.06 1.96 1.89 1.82 1.65 1.52
0.47 0.51 0.53 0.48 0.44 0.44 0.74 1.00 0.99 1.05 1.06 0.95 0.95 0.94 0.82 0.65 0.59 0.59 0.63 0.68 0.73 0.84 0.98 1.00 1.04 1.11 1.22 1.32 1.43 1.56 1.64 1.69 1.73 1.80 1.88 1.94 2.06 2.02 2.02 1.98 1.89 1.76 1.62 1.52
0.67 0.83 0.96 0.73 0.64 0.84 1.01 0.79 0.84 1.01 1.21 1.21 1.13 1.02 0.85 0.70 0.60 0.56 0.53 0.59 0.73 0.83 0.94 1.04 1.15 1.29 1.39 1.40 1.43 1.53 1.70 1.76 1.73 1.77 1.79 1.81 1.86 1.84 1.83 1.79 1.71 1.62 1.56 1.53
0.97 1.12 1.04 0.87 0.88 0.84 0.92 1.06 1.11 1.19 1.37 1.38 1.23 1.07 0.97 0.83 0.68 0.59 0.54 0.57 0.65 0.74 0.91 1.02 1.17 1.31 1.43 1.51 1.60 1.62 1.69 1.80 1.85 1.82 1.78 1.84 1.94 1.95 1.84 1.75 1.67 1.56 1.46 1.33
1.15 1.30 1.12 0.94 0.94 0.94 1.01 1.19 1.23 1.17 1.18 1.18 1.12 1.02 1.10 1.10 0.89 0.81 0.75 0.72 0.74 0.82 0.89 0.99 1.11 1.24 1.39 1.47 1.55 1.69 1.73 1.75 1.83 1.87 1.89 1.92 1.95 1.91 1.81 1.70 1.61 1.51 1.40 1.32
1.36 1.54 1.45 1.29 1.18 1.11 1.13 1.11 1.19 1.11 1.12 1.10 1.05 0.99 1.03 1.12 1.13 1.04 0.92 0.87 0.89 0.93 0.97 1.01 1.10 1.20 1.38 1.47 1.52 1.62 1.75 1.78 1.76 1.76 1.80 1.85 1.83 1.78 1.66 1.57 1.50 1.43 1.30 1.25
1.67 1.67 1.76 1.66 1.37 1.22 1.27 1.23 1.19 1.13 1.17 1.19 1.13 1.06 1.05 1.14 1.16 1.12 1.02 0.96 0.95 0.97 0.98 1.01 1.09 1.20 1.29 1.45 1.63 1.72 1.73 1.64 1.56 1.48 1.47 1.49 1.48 1.49 1.53 1.39 1.39 1.30 1.21 1.12
1.40 1.61 1.72 1.59 1.40 1.41 1.39 1.39 1.37 1.34 1.28 1.28 1.35 1.29 1.15 1.10 1.10 1.06 1.04 1.03 1.00 1.00 1.02 1.08 1.15 1.19 1.19 1.25 1.41 1.60 1.60 1.50 1.43 1.38 1.36 1.30 1.26 1.27 1.32 1.32 1.25 1.17 1.18 1.11
1.26 1.47 1.71 1.60 1.52 1.48 1.41 1.48 1.48 1.49 1.50 1.43 1.44 1.41 1.27 1.17 1.12 1.09 1.08 0.98 0.89 0.88 0.93 1.00 1.08 1.17 1.21 1.20 1.27 1.36 1.43 1.48 1.35 1.27 1.31 1.28 1.24 1.22 1.23 1.25 1.24 1.16 1.11 1.09
1.26 1.28 1.40 1.36 1.38 1.44 1.39 1.38 1.45 1.57 1.64 1.61 1.55 1.45 1.32 1.26 1.20 1.12 1.00 0.91 0.90 0.92 0.89 0.92 0.98 1.02 1.06 1.14 1.22 1.23 1.26 1.27 1.23 1.21 1.21 1.21 1.20 1.17 1.15 1.15 1.18 1.14 1.05 1.06
1.24 1.15 1.16 1.32 1.41 1.43 1.48 1.46 1.43 1.41 1.36 1.35 1.35 1.35 1.30 1.25 1.15 1.07 0.99 0.96 1.00 1.02 0.96 0.93 0.93 0.95 0.94 0.99 1.11 1.13 1.12 1.23 1.13 1.12 1.15 1.17 1.19 1.22 1.18 1.19 1.22 1.18 1.10 1.07
1.23 1.19 1.20 1.28 1.31 1.37 1.44 1.38 1.30 1.22 1.20 1.18 1.17 1.16 1.16 1.22 1.19 1.13 1.09 1.03 1.01 1.06 1.07 1.06 1.03 0.98 0.98 1.00 1.06 1.10 1.03 1.05 1.07 1.01 1.03 1.07 1.09 1.13 1.14 1.15 1.16 1.13 1.05 1.02
1.17 1.08 1.15 1.25 1.21 1.22 1.17 1.16 1.09 0.96 0.99 1.06 1.13 1.14 1.09 1.09 1.06 1.09 1.10 1.02 0.94 0.97 1.02 1.05 1.00 0.95 0.92 0.93 0.97 1.06 1.02 0.93 0.92 0.96 1.08 1.10 1.11 1.13 1.12 1.10 1.11 1.12 1.12 1.11
1.05 1.00 0.98 1.00 1.00 1.01 0.95 0.98 0.95 0.89 0.85 0.92 1.02 1.06 1.07 1.07 1.02 0.95 0.95 1.00 1.02 1.02 0.96 0.87 0.88 0.83 0.85 0.92 0.97 1.01 1.05 1.03 1.00 1.03 1.13 1.21 1.21 1.20 1.18 1.16 1.17 1.17 1.13 1.12
1.00 1.00 0.95 0.86 0.85 0.94 0.96 0.91 0.83 0.79 0.80 0.83 0.95 1.03 1.05 1.00 0.98 0.98 1.03 1.08 1.07 0.96 0.78 0.73 0.69 0.70 0.70 0.77 0.85 0.87 0.98 1.02 1.01 1.05 1.10 1.14 1.17 1.19 1.15 1.11 1.10 1.12 1.16 1.21
1.03 0.92 0.87 0.86 0.83 0.86 0.95 0.94 0.90 0.88 0.85 0.86 0.94 0.97 0.99 0.94 0.87 0.89 1.01 1.07 1.00 0.81 0.69 0.76 0.73 0.67 0.62 0.65 0.68 0.69 0.81 0.94 1.03 1.04 1.03 1.06 1.06 1.03 1.03 1.07 1.11 1.19 1.23 1.26
1.11 0.97 0.87 0.83 0.87 0.93 0.93 0.93 0.93 0.96 1.01 1.08 1.05 0.99 0.97 0.96 0.90 0.90 0.91 0.97 0.90 0.85 0.69 0.65 0.70 0.74 0.69 0.61 0.56 0.65 0.74 0.86 0.95 0.98 0.97 1.01 1.07 1.06 1.03 1.08 1.16 1.17 1.20 1.22
1.06 0.97 0.93 0.89 0.87 0.92 0.93 0.93 0.93 0.94 0.98 1.10 1.15 1.12 1.09 1.04 1.01 1.01 1.04 0.93 0.82 0.81 0.72 0.70 0.73 0.74 0.70 0.63 0.62 0.67 0.69 0.74 0.77 0.80 0.81 0.89 0.99 1.06 1.06 1.03 1.00 1.00 1.06 1.10
1.08 1.00 0.95 0.86 0.81 0.90 1.02 1.01 0.96 0.93 0.90 0.96 1.02 1.07 1.11 1.10 1.08 1.03 1.10 1.16 1.03 0.85 0.76 0.81 0.75 0.66 0.66 0.66 0.69 0.71 0.69 0.68 0.71 0.79 0.86 0.91 0.98 1.02 1.01 0.98 0.90 0.86 0.91 1.02
1.14 1.07 1.03 1.01 0.99 0.98 0.99 0.98 0.95 0.93 0.89 0.93 0.90 0.93 1.00 1.06 1.13 1.17 1.16 1.10 1.07 0.96 0.81 0.74 0.70 0.63 0.59 0.64 0.67 0.69 0.67 0.66 0.68 0.71 0.78 0.85 0.87 0.89 0.90 0.88 0.85 0.81 0.79 0.86
1.23 1.14 1.07 1.07 1.08 1.01 0.94 0.97 1.07 1.09 1.06 1.06 0.98 0.89 0.89 0.96 1.06 1.14 1.13 1.04 0.92 0.81 0.72 0.69 0.63 0.59 0.55 0.59 0.64 0.69 0.70 0.71 0.70 0.65 0.63 0.65 0.64 0.62 0.61 0.64 0.69 0.75 0.79 0.75
1.23 1.13 1.06 0.99 0.95 0.90 0.94 1.01 1.06 1.13 1.14 1.08 0.99 0.89 0.89 0.96 1.02 1.02 0.96 0.91 0.82 0.74 0.64 0.54 0.49 0.50 0.51 0.51 0.53 0.54 0.58 0.59 0.62 0.69 0.80 0.85 0.68 0.53 0.51 0.54 0.57 0.63 0.69 0.69